TimeMDT,TemperatureF,Dew PointF,Humidity,Sea Level PressureIn,VisibilityMPH,Wind Direction,Wind SpeedMPH,Gust SpeedMPH,PrecipitationIn,Events,Conditions,WindDirDegrees,DateUTC
12:53 AM,82.9,43.0,24,29.85,10.0,South,10.4,-,N/A,,Clear,170,2013-06-28 06:53:00
1:53 AM,79.0,43.0,28,29.85,10.0,SSE,8.1,-,N/A,,Clear,150,2013-06-28 07:53:00
2:53 AM,77.0,44.1,31,29.87,10.0,ESE,4.6,-,N/A,,Clear,120,2013-06-28 08:53:00
3:53 AM,73.0,44.1,35,29.88,10.0,SSW,6.9,-,N/A,,Clear,200,2013-06-28 09:53:00
4:38 AM,80.6,51.8,37,30.14,9.0,ENE,15.0,28.8,N/A,,Clear,60,2013-06-28 10:38:00
4:53 AM,80.1,51.1,36,29.93,10.0,East,11.5,-,N/A,,Clear,80,2013-06-28 10:53:00
5:53 AM,75.9,48.9,38,29.93,10.0,NNW,6.9,-,N/A,,Clear,330,2013-06-28 11:53:00
6:53 AM,75.9,48.9,38,29.96,10.0,West,5.8,-,N/A,,Clear,270,2013-06-28 12:53:00
7:53 AM,80.1,50.0,35,29.94,10.0,West,10.4,-,N/A,,Clear,260,2013-06-28 13:53:00
9:53 AM,88.0,51.1,28,29.96,10.0,North,12.7,-,N/A,,Clear,350,2013-06-28 15:53:00
10:53 AM,91.0,48.9,23,29.96,10.0,NNW,8.1,-,N/A,,Clear,330,2013-06-28 16:53:00
11:53 AM,96.1,48.0,19,29.94,10.0,NNE,11.5,-,N/A,,Clear,30,2013-06-28 17:53:00
12:53 PM,98.1,48.0,18,29.91,10.0,ENE,17.3,26.5,N/A,,Clear,60,2013-06-28 18:53:00
1:53 PM,100.9,46.9,16,29.89,10.0,North,17.3,21.9,N/A,,Clear,10,2013-06-28 19:53:00
2:53 PM,102.0,45.0,14,29.86,10.0,NE,13.8,21.9,N/A,,Partly Cloudy,40,2013-06-28 20:53:00
3:14 PM,102.2,42.8,13,30.05,10.0,East,11.5,26.5,N/A,,Partly Cloudy,80,2013-06-28 21:14:00
3:53 PM,102.9,43.0,13,29.84,10.0,East,12.7,26.5,N/A,,Partly Cloudy,80,2013-06-28 21:53:00
4:53 PM,102.0,43.0,13,29.81,10.0,East,8.1,-,N/A,,Partly Cloudy,80,2013-06-28 22:53:00
5:53 PM,100.9,43.0,14,29.81,10.0,ENE,6.9,-,N/A,,Mostly Cloudy,60,2013-06-28 23:53:00
6:53 PM,100.0,43.0,14,29.80,10.0,East,9.2,-,N/A,,Partly Cloudy,90,2013-06-29 00:53:00
7:53 PM,96.1,44.1,17,29.81,10.0,East,5.8,-,N/A,,Scattered Clouds,100,2013-06-29 01:53:00
8:53 PM,90.0,43.0,19,30.00,10.0,SSW,6.9,-,N/A,,Partly Cloudy,210,2013-06-29 02:53:00
9:53 PM,86.0,43.0,22,29.83,10.0,WSW,5.8,-,N/A,,Clear,250,2013-06-29 03:53:00
10:53 PM,82.9,42.1,24,29.84,10.0,West,5.8,-,N/A,,Clear,260,2013-06-29 04:53:00
11:53 PM,81.0,44.1,27,29.83,10.0,East,5.8,-,N/A,,Clear,100,2013-06-29 05:53:00